Location: Newark
(45.1381°N, 84.1621°W)
Time: 21:17:57
(UTC+00:00)

N. Korean satellite - Visible Passes

Search period start: 13 December 2019 00:00
Search period end: 23 December 2019 00:00
Orbit: 455 x 507 km, 97.2° (Epoch: 13 December)

Date Brightness Start Highest point End Pass type
(mag) Time Alt. Az. Time Alt. Az. Time Alt. Az.
13 Dec 6.4 11:36:25 10° N 11:39:57 85° WNW 11:43:24 10° SSW visible
13 Dec 10.0 23:48:45 10° WSW 23:50:33 13° W 23:52:22 10° WNW visible
14 Dec 7.7 11:11:06 10° NNE 11:14:29 43° E 11:17:46 10° S visible
14 Dec 9.1 23:21:50 10° SSW 23:24:56 25° W 23:28:01 10° NW visible
15 Dec 9.2 10:46:11 10° NE 10:48:54 21° E 10:51:35 10° SE visible
15 Dec 7.5 12:19:22 10° NNW 12:22:16 24° WNW 12:25:07 10° SW visible
15 Dec 7.6 22:55:48 10° S 22:59:24 50° W 23:02:59 10° NNW visible
16 Dec 10.1 10:22:29 10° ENE 10:23:14 11° E 10:23:58 10° ESE visible
16 Dec 6.6 11:53:33 10° N 11:56:57 49° WNW 12:00:17 10° SSW visible
16 Dec 6.6 22:30:16 10° SSE 22:33:57 77° ENE 22:37:36 10° N visible
17 Dec 6.6 11:28:02 10° NNE 11:31:32 74° ESE 11:34:57 10° S visible
17 Dec 9.8 23:39:46 10° SW 23:42:06 16° W 23:44:26 10° NW visible
18 Dec 8.2 11:02:50 10° NNE 11:06:02 33° E 11:09:10 10° SSE visible
18 Dec 8.1 12:36:58 10° NNW 12:39:10 16° WNW 12:41:20 10° WSW visible
18 Dec 8.7 23:13:13 10° SSW 23:16:30 31° W 23:19:46 10° NNW visible
19 Dec 9.5 10:38:06 10° NE 10:40:25 17° E 10:42:43 10° SE visible
19 Dec 7.2 12:10:49 10° N 12:13:54 30° WNW 12:16:56 10° SW visible
19 Dec 7.1 22:47:22 10° S 22:51:00 64° W 22:54:37 10° NNW visible
20 Dec 6.4 11:45:06 10° N 11:48:33 64° WNW 11:51:56 10° SSW visible
21 Dec 7.1 11:19:40 10° NNE 11:23:06 57° E 11:26:28 10° S visible
21 Dec 9.5 23:30:56 10° SW 23:33:39 19° W 23:36:20 10° NW visible
22 Dec 8.7 10:54:34 10° NE 10:57:33 26° E 11:00:29 10° SSE visible
22 Dec 7.8 12:28:16 10° NNW 12:30:48 19° WNW 12:33:18 10° WSW visible
22 Dec 8.2 23:04:39 10° SSW 23:08:04 38° W 23:11:28 10° NNW visible
